Погода в Рединге

Великобритания     51°27′37″N   0°58′23″E
темп.,
°C
ветер,
м/с
пор.,
м/с
влажн.,
%
обл.,
%
осадки,
мм/ч
давл.,
гПа
погр.,
м
10 апреля, сб
сб1001:00+3ссз2394100 0.0 101474
04:00+3ссв2293100 0.0 101325
07:00+4всв4697100 0.6 1014786
10:00+4св4897100 0.8 1014549
13:00+5св5892100 1.3 1013753
16:00+6всв5886100 0.6 1012998
19:00+5в5988100 1.1 1013815
22:00+3св4985100 0.0 1014358
11 апреля, вс
вс1101:000с498889 0.0 1015267
04:00−1с4119197 0.0 1016252
07:00−1с41187100 0.0 1017301
10:00+4ссв6870100 0.0 10191009
13:00+8с6747100 0.0 10201947
16:00+8с4646100 0.0 10201974
19:00+5ссз477624 0.6 1022259
22:000ссз369782 0.1 1025122
12 апреля, пн
пн1201:00+1ссз369697 0.1 1027293
04:00−2сз23977 0.0 102840
07:00−2сз22935 0.0 102951
10:00+4зсз34655 0.0 1029572
13:00+7з566789 0.1 10291269
16:00+7зсз5777100 0.8 10281065
19:00+6сз6108761 1.8 1029654
22:00+3ссз5989100 0.1 1031615
13 апреля, вт
вт1301:00+3ссв338082 0.1 103280
04:000ссз22925 0.0 103325
07:00−1с22945 0.0 103333
10:00+5всв117133 0.0 1034561
13:00+9ююз115269 0.0 10331567
16:00+9зсз2249100 0.0 10321641
19:00+7з11705 0.1 103212
22:00+3з228759 0.0 103311
14 апреля, ср
ср1401:00+2зсз11925 0.0 103310
04:00+1сз11945 0.0 103310
07:00+1сз22935 0.0 103329
10:00+7с23715 0.0 1034537
13:00+11с225533 0.0 10331613
16:00+11с335897 0.3 10321046
19:00+8св478376 1.3 1033296
22:00+3св388978 0.0 1035174